Weather History for KLHQ - January, 2014

Change the Weather History Date:

Sunday, January 19, 2014

  Actual Average Record
Temperature  
Mean Temperature 28 °F -  
Max Temperature 34 °F 35 °F 62 °F (1973)
Min Temperature 21 °F 16 °F -13 °F (1940)
Degree Days  
Heating Degree Days 38    
Moisture  
Dew Point 20 °F    
Average Humidity 76    
Maximum Humidity 89    
Minimum Humidity 61    
Precipitation  
Precipitation 0.00 in - - ()
Sea Level Pressure  
Sea Level Pressure 29.82 in    
Wind  
Wind Speed 7 mph (SW)    
Max Wind Speed 16 mph    
Max Gust Speed 25 mph    
Visibility 9 miles    
Events Snow    
Averages and records for this station are not official NWS values.
T = Trace of Precipitation, MM = Missing Value Source: NWS Daily Summary

Daily Weather History Graph

Daily Weather History Graph

Search for Another Location

Airport or City:

Trip Planner

Search our weather history database for the weather conditions in past years. The results will help you decide how hot, cold, wet, or windy it might be!

Date:

Astronomy

Jan. 19, 2014 Rise Set
Actual Time 7:48 AM EST 5:35 PM EST
Civil Twilight 7:18 AM EST 6:04 PM EST
Nautical Twilight 6:45 AM EST 6:37 PM EST
Astronomical Twilight 6:13 AM EST 7:09 PM EST
Moon 9:11 PM EST (1/19) 9:18 AM EST (1/19)
Length of Visible Light 10h 45m
Length of Day
9h 46m
Waning Gibbous, 89% of the Moon is Illuminated
Jan 19
Waning Gibbous
Jan 24
Last Quarter
Jan 30
New
Feb 6
First Quarter
Feb 14
Full

Hourly Weather History & Observations

Time (EST) Temp. Windchill Dew Point Humidity Pressure Visibility Wind Dir Wind Speed Gust Speed Precip Events Conditions
12:53 AM 21.9 °F 13.4 °F 18.0 °F 85% 29.80 in 7.0 mi SE 6.9 mph - 0.00 in Snow Light Snow
1:05 AM 21.9 °F 13.4 °F 18.0 °F 85% 29.76 in 9.0 mi SE 6.9 mph - 0.00 in   Overcast
1:14 AM 21.9 °F 14.5 °F 19.0 °F 89% 29.76 in 10.0 mi SSE 5.8 mph - 0.00 in   Overcast
1:53 AM 23.0 °F 15.8 °F 19.0 °F 85% 29.78 in 10.0 mi SE 5.8 mph - 0.00 in   Overcast
2:53 AM 23.0 °F 17.0 °F 19.9 °F 88% 29.79 in 9.0 mi SE 4.6 mph - 0.00 in   Overcast
3:26 AM 23.0 °F - 19.9 °F 88% 29.76 in 10.0 mi Calm Calm - N/A   Overcast
3:46 AM 23.0 °F - 19.9 °F 88% 29.76 in 5.0 mi Calm Calm - 0.00 in Snow Light Snow
3:53 AM 24.1 °F - 21.0 °F 88% 29.80 in 4.0 mi Calm Calm - 0.00 in Snow Light Snow
4:19 AM 24.1 °F - 19.9 °F 84% 29.76 in 5.0 mi Calm Calm - 0.00 in Snow Light Snow
4:53 AM 24.1 °F - 21.0 °F 88% 29.80 in 9.0 mi Calm Calm - 0.00 in   Overcast
5:38 AM 25.0 °F 18.1 °F 21.9 °F 88% 29.76 in 10.0 mi WSW 5.8 mph - N/A   Overcast
5:46 AM 26.1 °F 20.5 °F 21.9 °F 84% 29.77 in 10.0 mi West 4.6 mph - N/A   Overcast
5:53 AM 26.1 °F 17.6 °F 21.9 °F 84% 29.81 in 10.0 mi West 8.1 mph - N/A   Overcast
6:17 AM 27.0 °F 19.5 °F 21.9 °F 81% 29.79 in 10.0 mi West 6.9 mph - N/A   Overcast
6:53 AM 26.1 °F 18.4 °F 21.9 °F 84% 29.84 in 10.0 mi West 6.9 mph - N/A   Overcast
7:53 AM 26.1 °F 17.6 °F 21.0 °F 81% 29.88 in 9.0 mi West 8.1 mph - N/A   Overcast
8:53 AM 26.1 °F 15.6 °F 19.0 °F 75% 29.91 in 9.0 mi West 11.5 mph 19.6 mph N/A   Overcast
9:53 AM 25.0 °F 12.6 °F 18.0 °F 75% 29.94 in 10.0 mi West 15.0 mph 20.7 mph N/A   Overcast
10:53 AM 26.1 °F 16.2 °F 18.0 °F 71% 29.95 in 10.0 mi WSW 10.4 mph - N/A   Overcast
11:53 AM 26.1 °F 16.2 °F 19.0 °F 75% 29.94 in 10.0 mi WSW 10.4 mph - N/A   Mostly Cloudy
12:30 PM 27.0 °F 14.7 °F 18.0 °F 69% 29.88 in 10.0 mi WSW 16.1 mph - N/A   Scattered Clouds
12:53 PM 28.0 °F 17.0 °F 19.0 °F 69% 29.90 in 10.0 mi WSW 13.8 mph - N/A   Partly Cloudy
1:53 PM 28.9 °F 18.2 °F 19.9 °F 69% 29.88 in 10.0 mi WSW 13.8 mph 23.0 mph N/A   Clear
2:53 PM 30.9 °F 20.7 °F 21.0 °F 67% 29.87 in 10.0 mi SW 13.8 mph 23.0 mph N/A   Scattered Clouds
3:53 PM 33.1 °F 23.9 °F 21.0 °F 61% 29.86 in 10.0 mi SW 12.7 mph 25.3 mph N/A   Clear
4:53 PM 33.1 °F 24.9 °F 21.0 °F 61% 29.84 in 10.0 mi SW 10.4 mph - N/A   Clear
5:53 PM 32.0 °F 23.0 °F 21.9 °F 66% 29.83 in 10.0 mi SW 11.5 mph - N/A   Clear
6:53 PM 32.0 °F 22.1 °F 21.0 °F 64% 29.82 in 10.0 mi SW 13.8 mph 20.7 mph N/A   Clear
7:53 PM 33.1 °F 23.9 °F 21.9 °F 64% 29.80 in 10.0 mi SSW 12.7 mph 23.0 mph N/A   Clear
8:53 PM 34.0 °F 25.5 °F 21.9 °F 61% 29.78 in 10.0 mi SSW 11.5 mph - N/A   Clear
9:53 PM 34.0 °F 24.2 °F 21.9 °F 61% 29.78 in 10.0 mi SW 15.0 mph 21.9 mph N/A   Clear
10:53 PM 33.1 °F 26.1 °F 21.9 °F 64% 29.79 in 10.0 mi SW 8.1 mph - N/A   Clear
11:53 PM 34.0 °F 26.0 °F 23.0 °F 64% 29.75 in 10.0 mi SSW 10.4 mph 19.6 mph N/A   Clear